TimeEDT,TemperatureF,Dew PointF,Humidity,Sea Level PressureIn,VisibilityMPH,Wind Direction,Wind SpeedMPH,Gust SpeedMPH,PrecipitationIn,Events,Conditions,WindDirDegrees,DateUTC
12:40 AM,66.2,64.4,94,30.04,10.0,Calm,Calm,-,N/A,,Overcast,0,2013-10-13 04:40:00
12:49 AM,66.2,64.4,94,30.04,10.0,Calm,Calm,-,N/A,,Overcast,0,2013-10-13 04:49:00
12:53 AM,66.9,64.0,90,30.04,10.0,Calm,Calm,-,N/A,,Overcast,0,2013-10-13 04:53:00
1:53 AM,66.9,64.0,90,30.04,10.0,Calm,Calm,-,N/A,,Overcast,0,2013-10-13 05:53:00
2:53 AM,66.9,64.0,90,30.04,10.0,Calm,Calm,-,N/A,,Overcast,0,2013-10-13 06:53:00
3:53 AM,66.0,64.0,93,30.04,9.0,NW,4.6,-,N/A,,Overcast,320,2013-10-13 07:53:00
4:06 AM,66.2,64.4,94,30.04,8.0,NNW,4.6,-,N/A,,Overcast,330,2013-10-13 08:06:00
4:53 AM,66.0,64.9,96,30.04,2.5,NW,4.6,-,N/A,,Overcast,320,2013-10-13 08:53:00
5:53 AM,66.0,64.9,96,30.06,1.5,NNW,4.6,-,N/A,,Overcast,330,2013-10-13 09:53:00
6:07 AM,66.2,64.4,94,30.06,2.5,NNW,5.8,-,N/A,,Overcast,330,2013-10-13 10:07:00
6:14 AM,66.2,64.4,94,30.06,3.0,NNW,4.6,-,N/A,,Overcast,330,2013-10-13 10:14:00
6:21 AM,66.2,64.4,94,30.06,2.0,NNW,4.6,-,N/A,,Overcast,330,2013-10-13 10:21:00
6:53 AM,66.0,64.9,96,30.07,2.5,NNW,4.6,-,N/A,,Overcast,330,2013-10-13 10:53:00
7:02 AM,66.2,64.4,94,30.07,3.0,NNW,4.6,-,0.00,Rain,Light Rain,330,2013-10-13 11:02:00
7:34 AM,66.2,64.4,94,30.07,2.5,North,5.8,-,0.01,Rain,Light Rain,350,2013-10-13 11:34:00
7:48 AM,66.2,64.4,94,30.07,4.0,North,3.5,-,0.02,,Overcast,350,2013-10-13 11:48:00
7:53 AM,66.9,64.9,93,30.08,4.0,North,3.5,-,0.02,,Overcast,350,2013-10-13 11:53:00
8:53 AM,68.0,66.0,93,30.10,10.0,North,6.9,-,N/A,,Overcast,360,2013-10-13 12:53:00
9:53 AM,69.1,64.9,87,30.12,10.0,NNE,11.5,-,N/A,,Overcast,20,2013-10-13 13:53:00
10:53 AM,70.0,66.0,87,30.12,10.0,North,8.1,-,N/A,,Overcast,360,2013-10-13 14:53:00
11:53 AM,70.0,64.9,84,30.12,10.0,North,10.4,-,N/A,,Overcast,350,2013-10-13 15:53:00
12:53 PM,73.0,64.9,76,30.11,10.0,North,11.5,-,N/A,,Overcast,10,2013-10-13 16:53:00
1:53 PM,75.0,64.9,71,30.09,10.0,North,12.7,-,N/A,,Overcast,360,2013-10-13 17:53:00
2:53 PM,75.0,64.9,71,30.07,10.0,North,9.2,-,N/A,,Overcast,10,2013-10-13 18:53:00
3:08 PM,75.2,64.4,69,30.07,10.0,North,9.2,-,N/A,,Overcast,10,2013-10-13 19:08:00
3:30 PM,75.2,66.2,73,30.07,10.0,North,8.1,-,N/A,,Overcast,350,2013-10-13 19:30:00
3:51 PM,75.2,64.4,69,30.06,10.0,North,9.2,-,N/A,,Overcast,350,2013-10-13 19:51:00
3:53 PM,75.0,66.0,73,30.06,10.0,North,8.1,-,N/A,,Overcast,350,2013-10-13 19:53:00
4:53 PM,73.9,66.0,76,30.06,10.0,NNW,9.2,-,N/A,,Overcast,340,2013-10-13 20:53:00
5:53 PM,75.0,66.0,73,30.07,10.0,NNW,9.2,-,N/A,,Mostly Cloudy,340,2013-10-13 21:53:00
6:53 PM,72.0,66.0,81,30.07,10.0,NNW,11.5,-,N/A,,Overcast,340,2013-10-13 22:53:00
7:53 PM,70.0,66.0,87,30.09,10.0,NNW,9.2,-,N/A,,Partly Cloudy,340,2013-10-13 23:53:00
8:53 PM,69.1,64.9,87,30.10,10.0,North,8.1,-,N/A,,Scattered Clouds,350,2013-10-14 00:53:00
9:22 PM,69.8,64.4,83,30.10,10.0,NNW,8.1,-,N/A,,Mostly Cloudy,340,2013-10-14 01:22:00
9:37 PM,69.8,64.4,83,30.10,10.0,North,8.1,-,N/A,,Scattered Clouds,350,2013-10-14 01:37:00
9:44 PM,69.8,64.4,83,30.10,10.0,North,10.4,-,N/A,,Mostly Cloudy,350,2013-10-14 01:44:00
9:53 PM,69.1,66.0,90,30.10,10.0,North,9.2,-,N/A,,Mostly Cloudy,10,2013-10-14 01:53:00
10:53 PM,70.0,66.0,87,30.10,10.0,North,9.2,-,N/A,,Overcast,10,2013-10-14 02:53:00
11:09 PM,69.8,66.2,88,30.10,10.0,North,10.4,-,N/A,,Overcast,10,2013-10-14 03:09:00
11:53 PM,69.1,66.0,90,30.10,10.0,NNE,10.4,-,N/A,,Mostly Cloudy,20,2013-10-14 03:53:00